Weather in Beroun

Czech Republic     49°57′53″N   14°04′14″E
temp.,
°C
wind,
m/s
gust,
m/s
humid.,
%
clouds,
%
prec.,
mm/h
press.,
hPa
HPBL,
m
12 may, wed
wed1223:00+15wsw6119872 2.1 1003447
02:00+13wsw61196100 3.2 1006484
05:00+13w2496100 0.8 1007234
08:00+12nnw3794100 1.0 1008471
11:00+13nnw3589100 0.2 1007580
14:00+14n3692100 0.9 1006787
17:00+13nne2597100 2.8 1005394
20:00+12wnw3798100 7.0 1005498
13 may, thu
thu1323:00+10nw51096100 1.8 1005525
02:00+10w4897100 3.1 1004532
05:00+10wnw4997100 1.3 1003723
08:00+9wnw4896100 2.3 1003627
11:00+9w4996100 1.6 1003772
14:00+8w61195100 2.5 1004785
17:00+8w51093100 0.6 1005796
20:00+8wnw5118993 0.7 10051007
14 may, fri
fri1423:00+6wsw3995100 0.0 1006241
02:00+8wsw41094100 0.0 1006399
05:00+8wsw5993100 0.0 1006532
08:00+8wsw598779 0.0 1008510
11:00+11wsw587393 0.0 1008858
14:00+15wsw565484 0.1 10071717
17:00+14sw345792 0.1 1007902
20:00+11sw2372100 0.1 100747
15 may, sat
sat1523:00+8sw358670 0.0 1009103
02:00+6wsw23945 0.0 101049
05:00+5wsw23965 0.0 101058
08:00+10wsw3580100 0.0 1010312
11:00+14w3361100 0.0 10091045
14:00+16wsw3250100 0.1 10081676
17:00+14w4567100 0.3 1008781
20:00+11wsw1181100 1.0 100811
16 may, sun
sun1623:00+9wsw2289100 0.1 101021
02:00+7wsw2495100 0.1 101170
05:00+6wsw3995100 0.0 1011198
08:00+10wsw488318 0.0 1011398
11:00+14wsw565671 0.0 10111546
14:00+15wsw575889 0.3 10101775
17:00+14wsw576342 0.4 10101436
20:00+11w48752 0.6 1010363